Regional Weather Roundup
Issued by NWS Albany, NY

Home | Current Version | Previous Version | Text Only | Print | Product List | Glossary On
Versions: 1 2 3 4 5 6 7 8 9 10 11 12 13 14 15 16 17 18 19 20 21 22 23 24 25 26 27 28
000
ASUS41 KALY 290610
RWRALY

NEW YORK STATE HOURLY WEATHER ROUNDUP
NATIONAL WEATHER SERVICE ALBANY NY
200 AM EDT MON AUG 29 2016

NOTE: "FAIR" INDICATES FEW OR NO CLOUDS BELOW 12,000 FEET WITH NO
SIGNIFICANT WEATHER AND/OR NO OBSTRUCTIONS TO VISIBILITY.

NYZ032-033-038>043-046>054-057>066-NYZ062>081-082-084-290700-
EAST


CITY           SKY/WX    TMP DP  RH WIND       PRES   REMARKS
ALBANY         CLOUDY    76  64  66 S8        30.09S
GLENS FALLS    FAIR      72  65  78 SE6       30.07F
POUGHKEEPSIE   CLOUDY    70  64  81 CALM      30.12F
MONTGOMERY     MOCLDY    68  65  90 CALM      30.14S
WHITE PLAINS   FAIR      71  67  87 CALM      30.15F
ISLIP          PTCLDY    73  67  81 SW7       30.15F
NEW YORK CITY  MOCLDY    77  66  68 SW10      30.14F
CENTRAL PARK   PTCLDY    75  64  68 VRB5      30.18F
$$

NYZ005>009-017-018-044>046-055-056-290700-
CENTRAL


CITY           SKY/WX    TMP DP  RH WIND       PRES   REMARKS
FULTON         CLOUDY    73  66  78 W7        30.15S
SYRACUSE       CLOUDY    73  67  81 W8        30.13F
ROME           FAIR      69  68  96 CALM      30.14S
ELMIRA         FAIR      73  68  84 SW6       30.16F
BINGHAMTON     FAIR      72  68  87 NW5       30.18F
MONTICELLO     FAIR      68  64  88 CALM      30.19S
$$

NYZ026>034-041>043-087-290700-
NORTH


CITY           SKY/WX    TMP DP  RH WIND       PRES   REMARKS
WATERTOWN      FAIR      70  62  76 W6        30.12R
FORT DRUM      NOT AVBL
MASSENA        FAIR      70  63  78 W6        30.08R
SARANAC LAKE   MOCLDY    70  64  81 VRB6      30.11S
PLATTSBURGH    FAIR      71  67  87 VRB3      30.03R
$$

NYZ001>004-010>016-019>021-085-290700-
WEST


CITY           SKY/WX    TMP DP  RH WIND       PRES   REMARKS
NIAGARA FALLS    N/A    N/A N/A N/A MISG      30.19S
BUFFALO        FAIR      70  65  84 W3        30.19F
DUNKIRK        CLOUDY    73  65  75 N8        30.20F
JAMESTOWN      CLOUDY    72  66  83 CALM      30.23F
WELLSVILLE     MOCLDY    69  65  86 W7        30.25F
ROCHESTER      MOCLDY    72  65  78 NW5       30.18F
PENN YAN       CLOUDY    74  66  76 VRB5      30.19R
$$

             KEY
       WCI = WIND CHILL INDEX
       VSB = VISIBILITY
       HX  = HEAT INDEX
$$




USA.gov is the U.S. government's official web portal to all federal, state and local government web resources and services.